| time (UTC) | temp F | wind direction | speed knots | gust knots | rain 1hr in | rain 24hr in | rain mn in | humidity % | barometer mb |
| 20260507023020 | 55 | 270 | 0.0 | 7.0 | 0.00 | 0.18 | 0.18 | 95 | 1007.9 |
| 20260507021517 | 55 | 240 | 1.7 | 6.1 | 0.00 | 0.18 | 0.18 | 95 | 1008.2 |
| 20260507020020 | 55 | 242 | 0.0 | 7.0 | 0.00 | 0.18 | 0.18 | 95 | 1008.2 |
| 20260507014520 | 55 | 216 | 1.7 | 7.0 | 0.00 | 0.18 | 0.18 | 95 | 1008.3 |
| 20260507013022 | 55 | 236 | 5.2 | 9.6 | 0.00 | 0.18 | 0.18 | 95 | 1008.1 |
| 20260507011515 | 55 | 217 | 2.6 | 5.2 | 0.00 | 0.18 | 0.18 | 95 | 1008.0 |
| 20260507010026 | 55 | 221 | 0.9 | 5.2 | 0.00 | 0.18 | 0.18 | 95 | 1008.1 |
| 20260507004513 | 55 | 211 | 0.0 | 6.1 | 0.00 | 0.18 | 0.18 | 95 | 1008.2 |
| 20260507003017 | 55 | 214 | 0.0 | 5.2 | 0.00 | 0.18 | 0.18 | 95 | 1008.2 |
| 20260507001524 | 55 | 231 | 1.7 | 6.1 | 0.00 | 0.18 | 0.18 | 95 | 1008.2 |
| 20260507000006 | 55 | 234 | 0.0 | 4.3 | 0.00 | 0.18 | 0.18 | 95 | 1008.1 |
| 20260506233019 | 55 | 213 | 0.0 | 6.1 | 0.00 | 0.18 | 0.18 | 95 | 1008.0 |
| 20260506231525 | 55 | 183 | 0.9 | 7.0 | 0.00 | 0.18 | 0.18 | 95 | 1008.0 |
| 20260506230029 | 55 | 200 | 0.9 | 7.0 | 0.00 | 0.18 | 0.18 | 94 | 1007.9 |
| 20260506224511 | 55 | 212 | 2.6 | 8.7 | 0.00 | 0.18 | 0.18 | 94 | 1007.8 |
| 20260506223026 | 55 | 267 | 2.6 | 6.1 | 0.01 | 0.18 | 0.18 | 94 | 1007.7 |
| 20260506221520 | 55 | 242 | 0.0 | 10.4 | 0.01 | 0.18 | 0.18 | 94 | 1007.6 |
| 20260506220031 | 56 | 218 | 8.7 | 13.0 | 0.04 | 0.18 | 0.18 | 94 | 1007.7 |
| 20260506214525 | 56 | 209 | 1.7 | 12.2 | 0.07 | 0.18 | 0.18 | 93 | 1007.7 |
| 20260506213012 | 56 | 226 | 0.9 | 12.2 | 0.07 | 0.17 | 0.17 | 93 | 1007.6 |
| 20260506211523 | 56 | 243 | 0.9 | 13.9 | 0.08 | 0.17 | 0.17 | 93 | 1007.8 |
| 20260506210032 | 56 | 213 | 0.0 | 15.6 | 0.05 | 0.14 | 0.14 | 93 | 1008.0 |
| 20260506204541 | 57 | 200 | 0.9 | 10.4 | 0.02 | 0.11 | 0.11 | 93 | 1008.2 |
| 20260506203029 | 57 | 202 | 1.7 | 11.3 | 0.01 | 0.10 | 0.10 | 92 | 1008.1 |
| 20260506201514 | 57 | 234 | 6.1 | 12.2 | 0.00 | 0.09 | 0.09 | 92 | 1008.4 |
| 20260506200025 | 57 | 194 | 3.5 | 14.8 | 0.01 | 0.09 | 0.09 | 92 | 1008.2 |
| 20260506194507 | 57 | 227 | 7.0 | 14.8 | 0.03 | 0.09 | 0.09 | 92 | 1008.4 |
| 20260506193005 | 57 | 212 | 2.6 | 13.9 | 0.06 | 0.09 | 0.09 | 92 | 1008.6 |
| 20260506191513 | 57 | 238 | 6.1 | 17.4 | 0.07 | 0.09 | 0.09 | 92 | 1008.8 |
| 20260506190015 | 57 | 235 | 5.2 | 17.4 | 0.07 | 0.08 | 0.08 | 91 | 1008.9 |
| 20260506183006 | 57 | 208 | 7.0 | 13.0 | 0.03 | 0.03 | 0.03 | 90 | 1009.0 |
| 20260506181519 | 58 | 224 | 2.6 | 11.3 | 0.02 | 0.02 | 0.02 | 89 | 1009.4 |
| 20260506180030 | 58 | 249 | 9.6 | 14.8 | 0.01 | 0.01 | 0.01 | 87 | 1010.0 |
| 20260506174520 | 59 | 284 | 7.0 | 17.4 | 0.00 | 0.00 | 0.00 | 83 | 1010.1 |
| 20260506173023 | 61 | 253 | 1.7 | 11.3 | 0.00 | 0.00 | 0.00 | 79 | 1010.4 |
| 20260506171510 | 61 | 231 | 4.3 | 18.2 | 0.00 | 0.00 | 0.00 | 78 | 1010.3 |
| 20260506170014 | 62 | 182 | 9.6 | 17.4 | 0.00 | 0.00 | 0.00 | 77 | 1010.6 |
| 20260506164520 | 62 | 238 | 5.2 | 13.0 | 0.00 | 0.00 | 0.00 | 76 | 1010.6 |
| 20260506163021 | 63 | 236 | 7.0 | 20.9 | 0.00 | 0.00 | 0.00 | 74 | 1010.5 |
| 20260506161534 | 64 | 202 | 4.3 | 20.9 | 0.00 | 0.00 | 0.00 | 72 | 1010.7 |
| 20260506160041 | 64 | 234 | 4.3 | 18.2 | 0.00 | 0.00 | 0.00 | 73 | 1011.0 |
| 20260506154513 | 63 | 199 | 6.1 | 19.1 | 0.00 | 0.00 | 0.00 | 73 | 1011.0 |
| 20260506153020 | 64 | 237 | 8.7 | 15.6 | 0.00 | 0.00 | 0.00 | 72 | 1010.9 |
| 20260506151533 | 65 | 226 | 8.7 | 20.0 | 0.00 | 0.00 | 0.00 | 69 | 1010.9 |
| 20260506150022 | 66 | 229 | 7.0 | 17.4 | 0.00 | 0.00 | 0.00 | 69 | 1011.0 |
| 20260506144513 | 66 | 217 | 7.0 | 20.0 | 0.00 | 0.00 | 0.00 | 70 | 1011.1 |
| 20260506143036 | 65 | 232 | 9.6 | 19.1 | 0.00 | 0.00 | 0.00 | 71 | 1011.3 |
| 20260506141505 | 65 | 247 | 9.6 | 18.2 | 0.00 | 0.00 | 0.00 | 71 | 1011.3 |
| 20260506140010 | 65 | 240 | 7.0 | 16.5 | 0.00 | 0.00 | 0.00 | 72 | 1011.3 |
| 20260506134511 | 63 | 194 | 4.3 | 11.3 | 0.00 | 0.00 | 0.00 | 74 | 1011.0 |
| 20260506133021 | 63 | 274 | 3.5 | 14.8 | 0.00 | 0.00 | 0.00 | 73 | 1011.0 |
| 20260506131528 | 63 | 223 | 5.2 | 12.2 | 0.00 | 0.00 | 0.00 | 73 | 1011.0 |
| 20260506124512 | 63 | 197 | 4.3 | 12.2 | 0.00 | 0.00 | 0.00 | 75 | 1011.6 |
| 20260506123017 | 62 | 223 | 0.9 | 13.9 | 0.00 | 0.00 | 0.00 | 76 | 1011.7 |
| 20260506120026 | 60 | 242 | 3.5 | 12.2 | 0.00 | 0.00 | 0.00 | 79 | 1011.7 |
| 20260506114508 | 60 | 207 | 1.7 | 7.8 | 0.00 | 0.00 | 0.00 | 82 | 1011.8 |
| 20260506113014 | 58 | 215 | 0.0 | 8.7 | 0.00 | 0.00 | 0.00 | 85 | 1011.8 |
| 20260506111518 | 57 | 209 | 2.6 | 10.4 | 0.00 | 0.00 | 0.00 | 86 | 1011.7 |
| 20260506110035 | 57 | 175 | 1.7 | 8.7 | 0.00 | 0.00 | 0.00 | 88 | 1011.9 |
| 20260506103016 | 56 | 221 | 1.7 | 7.8 | 0.00 | 0.00 | 0.00 | 89 | 1011.8 |
| 20260506101531 | 56 | 210 | 2.6 | 10.4 | 0.00 | 0.00 | 0.00 | 89 | 1011.7 |
| 20260506100020 | 55 | 211 | 2.6 | 7.8 | 0.00 | 0.00 | 0.00 | 88 | 1011.5 |
| 20260506094522 | 55 | 190 | 1.7 | 8.7 | 0.00 | 0.00 | 0.00 | 88 | 1011.5 |
| 20260506093008 | 55 | 222 | 0.9 | 10.4 | 0.00 | 0.00 | 0.00 | 87 | 1011.7 |
| 20260506090021 | 56 | 207 | 0.0 | 11.3 | 0.00 | 0.00 | 0.00 | 86 | 1011.9 |
| 20260506084528 | 56 | 231 | 2.6 | 10.4 | 0.00 | 0.00 | 0.00 | 86 | 1011.8 |
| 20260506083024 | 56 | 235 | 2.6 | 11.3 | 0.00 | 0.00 | 0.00 | 85 | 1011.9 |
| 20260506081510 | 57 | 219 | 7.8 | 14.8 | 0.00 | 0.00 | 0.00 | 85 | 1011.9 |
| 20260506073025 | 57 | 238 | 2.6 | 18.2 | 0.00 | 0.00 | 0.00 | 84 | 1012.0 |
| 20260506071527 | 57 | 223 | 2.6 | 9.6 | 0.00 | 0.00 | 0.00 | 83 | 1012.1 |
| 20260506061528 | 57 | 233 | 2.6 | 12.2 | 0.00 | 0.00 | 0.00 | 81 | 1011.9 |
| 20260506044521 | 58 | 215 | 3.5 | 19.1 | 0.00 | 0.00 | 0.00 | 79 | 1012.4 |
| 20260506041508 | 58 | 250 | 6.1 | 13.9 | 0.00 | 0.00 | 0.00 | 78 | 1012.6 |
| 20260506040009 | 59 | 207 | 7.0 | 15.6 | 0.00 | 0.00 | 0.00 | 77 | 1012.7 |
| 20260506034512 | 59 | 236 | 4.3 | 12.2 | 0.00 | 0.00 | 0.00 | 76 | 1012.7 |
| 20260506033021 | 59 | 248 | 6.1 | 13.0 | 0.00 | 0.00 | 0.00 | 75 | 1012.6 |
| 20260506031512 | 60 | 242 | 7.0 | 14.8 | 0.00 | 0.00 | 0.00 | 74 | 1012.5 |
| 20260506030008 | 60 | 237 | 4.3 | 15.6 | 0.00 | 0.00 | 0.00 | 73 | 1012.4 |
| 20260506024513 | 60 | 231 | 11.3 | 20.9 | 0.00 | 0.00 | 0.00 | 72 | 1012.3 |